Regional Weather Roundup
Issued by NWS

Home | Current Version | Previous Version | Graphics & Text | Print | Product List | Glossary On
Versions: 1 2 3 4 5 6 7 8 9 10 11 12 13 14 15 16 17 18 19 20 21 22 23 24 25 26 27 28 29 30 31 32 33 34 35 36 37 38 39 40 41 42 43 44 45 46 47 48 49 50
000
ASUS43 KLMK 212110
RWRKY
KENTUCKY REGIONAL WEATHER ROUNDUP
NATIONAL WEATHER SERVICE LOUISVILLE KY
400 PM EST SAT JAN 21 2017

NOTE "FAIR" INDICATES FEW OR NO CLOUDS BELOW 12,000 FEET
WITH NO SIGNIFICANT WEATHER AND/OR OBSTRUCTIONS TO VISIBILITY.

KYZ001>023-026-027-061>063-070>075-212200-
WESTERN AND SOUTH CENTRAL KENTUCKY

CITY           SKY/WX    TMP DP  RH WIND       PRES   REMARKS
PADUCAH        SUNNY     69  48  47 VRB7      29.56F
HENDERSON      SUNNY     70  52  52 SW15      29.57S
OWENSBORO      SUNNY     68  54  60 SW7       29.60R
HOPKINSVILLE   SUNNY     69  49  47 S9        29.59R
BOWLING GREEN  SUNNY     69  50  50 SE7       29.61F
GLASGOW        SUNNY     67  47  49 SE9       29.63F
$$

KYZ024-025-028>034-038-045-046-053-212200-
NORTH CENTRAL KENTUCKY

CITY           SKY/WX    TMP DP  RH WIND       PRES   REMARKS
LOUISVILLE/SDF PTSUNNY   66  52  60 VRB7      29.61S
LOUISVILLE/LOU CLOUDY    67  52  58 SW6       29.62S
FORT KNOX      CLOUDY    66  54  65 S9        29.60F
$$

KYZ035>037-039>044-047>052-055>060-089>105-212200-
NORTHEAST KENTUCKY

CITY           SKY/WX    TMP DP  RH WIND       PRES   REMARKS
LEXINGTON      CLOUDY    62  53  72 S6        29.67S
COVINGTON      CLOUDY    65  54  67 S12       29.62S
FRANKFORT      CLOUDY    65  53  65 S12       29.64S
$$

KYZ054-064>069-076>088-106>120-212200-
SOUTHEAST KENTUCKY

CITY           SKY/WX    TMP DP  RH WIND       PRES   REMARKS
JACKSON        CLOUDY    60  51  72 NW3       29.68S
LONDON         CLOUDY    60  52  74 SW3       29.69S
SOMERSET       LGT RAIN  61  52  72 CALM      29.68F
MIDDLESBORO    CLOUDY    58  51  77 CALM      29.68S
MONTICELLO     CLOUDY    64  51  62 W10       29.67F
$$




USA.gov is the U.S. government's official web portal to all federal, state and local government web resources and services.